Regional Weather Roundup
Issued by NWS

Current Version | Previous Version | Text Only | Print | Product List | Glossary On
Versions: 1 2 3 4 5 6 7 8 9 10 11 12 13 14 15 16 17 18 19 20 21 22 23 24 25 26 27 28 29 30 31 32 33 34 35 36 37 38 39 40 41 42 43 44 45 46 47 48 49 50
000
ASUS43 KLOT 301310
RWRIL

ILLINOIS REGIONAL WEATHER ROUNDUP
NATIONAL WEATHER SERVICE CHICAGO/ROMEOVILLE IL
800 AM CDT FRI SEP 30 2022

NOTE: "FAIR" INDICATES FEW OR NO CLOUDS BELOW 12,000 FEET WITH NO
SIGNIFICANT WEATHER AND/OR OBSTRUCTIONS TO VISIBILITY.

* THESE STATIONS ARE NOT UNDER NWS QUALITY CONTROL. THEY ALSO MAY NOT
  REPORT WEATHER SUCH AS PRECIPITATION OR FOG.

ILZ001-002-007-009-015-016-024-301400-
NORTHWEST ILLINOIS

CITY           SKY/WX    TMP DP  RH WIND       PRES   REMARKS
MOLINE         SUNNY     41  39  93 SE3       30.31S
STERLING*      SUNNY    N/A N/A N/A E6        30.33S HAZE
SAVANNA*       SUNNY     43  43 100 NE3       30.33S FOG
$$

ILZ003-004-008-010-011-017-018-301400-
NORTH CENTRAL ILLINOIS

CITY           SKY/WX    TMP DP  RH WIND       PRES   REMARKS
ROCKFORD       SUNNY     43  42  97 CALM      30.35S
FREEPORT*      FOG       38  38  99 CALM      30.35S VSB<1/4
ROCHELLE*      SUNNY     45  45 100 CALM      30.34S
DE KALB*       SUNNY     47  46  96 SE3       30.35S
PERU*          SUNNY     45  44  95 CALM      30.33S FOG
$$

ILZ005-006-012>014-019>023-301400-
NORTHEAST ILLINOIS

CITY           SKY/WX    TMP DP  RH WIND       PRES   REMARKS
CHICAGO-OHARE  MOSUNNY   52  46  80 SE3       30.34S
CHICAGO-MIDWAY MOSUNNY   52  44  74 SE5       30.35R
AURORA         SUNNY     44  43  96 CALM      30.34S
JOLIET*        SUNNY     47  46  97 CALM      30.35S
WAUKEGAN       SUNNY     47  43  86 SW3       30.33F
DUPAGE AIRPORT SUNNY     46  41  82 CALM      30.34S
KANKAKEE*      SUNNY     43  42  95 CALM      30.35S
WHEELING       SUNNY     47  43  86 CALM      30.36S
MORRIS*        SUNNY     43  43 100 CALM      30.34R
ROMEOVILLE*    SUNNY     48  46  93 CALM      30.35S
LANSING*       SUNNY     44  44 100 CALM      30.36R
NORTHERLY ISL*   N/A     52  44  74 S5          N/A
$$

LMZ740>746-301400-
SOUTHERN LAKE MICHIGAN

STATION/POSITION SKY/WX   TEMP    WIND        PRES    VSBY  WAVE
                          AIR SEA DIR/SP/G                  HT/PER
                          (F)     (DEG/KT/KT) (MB)    (MI)  (FT/S)
S. MID LAKE BUOY           58 61  180/  8/ 10 1028.0R         1/ 3
WINTHROP HARBOR            55 63  230/  4/  6   N/A           1/ 4
WAUKEGAN HARBOR            55 62  110/  6/  8 1026.4R         1/ 3
WILMETTE BUOY                 64  200/  8/ 10 1026.7F         1/ 3
CHICAGO BUOY               56 63  190/  6/ 10 1028.8F         1/ 3
HARRISON CRIB              55     190/  8/  9   N/A
NORTHERLY ISL              53     170/  4/  6   N/A
CALUMET HARBOR             51     170/  2/  4 1026.9S
BURNS HARBOR               52      CALM  /  5 1028.1
MICHIGAN CITY              48                 1027.6F
MICH CITY BUOY             54     200/ 10/ 12   N/A           1
ST. JOSEPH BUOY            53 65   80/ 10/ 12 1028.4F         1
$$

ILZ025>027-034>036-040-047-049-050-058-095>099-301400-
WEST-CENTRAL ILLINOIS

CITY           SKY/WX    TMP DP  RH WIND       PRES   REMARKS
QUINCY         SUNNY     46  41  82 E6        30.28R
GALESBURG*     SUNNY     46  44  92 E3        30.32R
MACOMB*        SUNNY     41  38  89 CALM      30.33R
PITTSFIELD*    SUNNY     43  43 100 CALM      30.30R
$$

ILZ028>032-037-038-041>044-048-051>054-059>061-301400-
CENTRAL ILLINOIS

CITY           SKY/WX    TMP DP  RH WIND       PRES   REMARKS
PONTIAC        SUNNY     44  44 100 E3        30.34S
BLOOMINGTON    SUNNY     45  43  93 CALM      30.33R
DECATUR        SUNNY     45  44  97 CALM      30.32R
PEORIA         SUNNY     49  44  83 E5        30.32R
LACON*         SUNNY     42  42 100 CALM      30.32S
LINCOLN*       SUNNY     45  45 100 CALM      30.31S
SPRINGFIELD    SUNNY     46  43  89 E3        30.30S
TAYLORVILLE    SUNNY     44  43  97 CALM      30.31R
$$

ILZ033-039-045-046-055>057-062-063-301400-
EAST-CENTRAL ILLINOIS

CITY           SKY/WX    TMP DP  RH WIND       PRES   REMARKS
CHAMPAIGN      SUNNY     48  44  86 NE7       30.32R
DANVILLE*      SUNNY     46  43  90 NE3       30.33S
RANTOUL*       SUNNY     46  44  93 E5        30.33R
MATTOON        SUNNY     44  41  89 N3        30.29S
PARIS*         SUNNY     45  45 100 NE5       30.32S
$$

ILZ079-100>102-301400-
SOUTHWEST ILLINOIS

CITY           SKY/WX    TMP DP  RH WIND       PRES   REMARKS
ALTON          SUNNY     43  43 100 NE5       30.29R
BELLEVILLE     SUNNY     47  45  93 N3        30.26R
CAHOKIA*       SUNNY     45  45 100 CALM      30.27
SPARTA*        SUNNY     46  45  97 NE3       30.27S
$$

ILZ064>066-069>071-074>076-080>082-084>086-088>090-092>094-301400-
SOUTH-CENTRAL ILLINOIS

CITY           SKY/WX    TMP DP  RH WIND       PRES   REMARKS
CARBONDALE     SUNNY     42  42 100 CALM      30.25R
CAIRO*         SUNNY     49  48  95 CALM      30.22R
EFFINGHAM*     SUNNY     48  45  88 NE5       30.30S
MARION         SUNNY     46  46 100 NE6       30.24S
MT. VERNON     SUNNY     46  46 100 NE3       30.27R
CENTRALIA*       N/A     44  44 100 E3        30.27R
SALEM*         SUNNY     49  48  95 NE5       30.27S
METROPOLIS*    SUNNY     48  47  97 CALM      30.23R
$$

ILZ067-068-072-073-078-083-087-091-301400-
SOUTHEAST ILLINOIS

CITY           SKY/WX    TMP DP  RH WIND       PRES   REMARKS
LAWRENCEVILLE  SUNNY     49  46  90 NE8       30.27S
FLORA*         SUNNY     48  46  93 NE6       30.28S
FAIRFIELD*     SUNNY     47  45  92 CALM      30.26R
HARRISBURG*    SUNNY     49  49 100 NE7       30.25R
ROBINSON*      SUNNY     45  45 100 N5        30.29S
CARMI*         SUNNY     48  46  93 CALM      30.25R
$$

ABBREVIATIONS USED IN REMARKS
   TC - TEMPERATURE IN CELSIUS
  WCI - WIND CHILL INDEX
   HX - HEAT INDEX
  VSB - VISIBILITY
$$




USA.gov is the U.S. government's official web portal to all federal, state and local government web resources and services.